Theta_e
290 291 292 293 292 292 291 291 293 293 294 296 294 294 294 299 290 288 296 298 294 294 293 293 295 297 297 297 297 299 301 301 302 303 303 303 303 303 304 304 305 305 305 306 307 307 308 310 311 312 313 314 317 320 322 323 324 324 325 324 324 324 324 324 325 326 326 327 327 327 326 326 326 326 325 326 325 325 325 325 325 324 324 322 321 320 322
289 290 291 293 291 291 292 292 292 294 294 294 295 295 296 298 296 298 297 295 292 293 293 295 296 298 297 297 298 299 298 298 300 300 300 300 300 301 301 302 303 304 304 304 305 305 306 307 307 307 309 310 312 315 317 319 321 322 324 324 323 323 324 324 325 325 326 327 327 327 326 325 325 325 326 326 325 324 324 324 325 324 324 324 323 322 322
289 291 292 292 291 291 291 292 293 293 294 294 295 295 295 297 296 295 293 290 288 294 297 296 296 297 297 296 296 296 298 298 298 298 298 298 299 299 300 300 301 302 303 303 303 303 304 304 305 306 307 308 309 311 313 316 318 320 322 322 322 322 323 323 324 325 324 324 325 325 326 326 326 325 325 325 326 324 324 324 324 324 324 323 323 322 322
287 290 290 289 291 291 289 290 292 292 293 290 293 290 293 295 292 294 292 289 287 292 295 294 295 296 295 294 295 295 296 297 297 296 296 297 297 298 298 299 300 300 300 301 301 302 303 303 304 304 306 306 307 308 309 309 312 316 320 321 321 321 322 323 324 324 324 323 323 323 324 324 324 324 324 324 324 324 323 324 325 325 323 322 322 323 323
287 290 290 289 289 289 284 286 291 290 291 291 292 293 294 294 297 293 290 291 294 292 293 292 293 295 294 294 294 293 294 295 296 295 295 296 296 297 297 297 298 299 299 300 301 301 301 301 302 303 304 305 305 307 308 309 310 310 310 312 315 318 320 321 322 324 323 322 322 322 322 322 322 323 322 322 323 323 322 324 324 322 321 322 322 321 321
289 290 292 293 288 280 283 288 288 291 290 290 290 288 289 291 293 291 295 292 293 292 293 293 292 292 292 293 295 297 296 295 295 295 295 296 296 297 297 297 297 299 299 300 301 301 301 301 302 303 304 303 305 307 307 308 309 309 309 309 311 312 315 317 320 321 321 321 321 322 322 321 321 321 321 321 323 324 323 323 322 322 322 322 322 320 319
288 291 291 286 280 283 288 290 292 292 292 292 289 288 289 290 292 293 292 292 292 293 294 293 292 292 293 294 294 295 297 297 296 295 294 294 294 295 296 296 296 298 299 300 300 301 301 301 302 302 302 303 304 304 305 306 307 308 308 308 310 310 310 311 312 315 318 320 321 321 322 321 321 320 320 321 322 323 323 322 322 321 321 321 321 321 321
291 287 287 278 281 286 290 291 293 295 294 293 291 288 289 291 293 294 292 292 292 292 291 292 293 293 293 294 294 294 295 296 296 295 295 296 296 296 297 297 298 298 299 299 300 301 301 301 301 301 301 303 303 303 304 304 305 307 307 307 307 308 309 309 310 310 311 312 315 318 320 321 320 321 322 322 322 322 322 323 323 322 322 322 321 321 321
284 287 287 284 288 288 288 287 290 292 290 291 291 285 286 291 294 294 292 291 291 290 290 291 292 293 293 290 291 294 294 295 296 296 296 297 297 298 298 298 297 298 299 299 299 300 301 300 299 300 301 301 302 302 303 302 302 304 306 306 306 307 307 308 308 309 310 310 311 313 316 318 319 320 321 321 322 323 322 322 321 320 321 321 321 320 320
288 286 285 284 283 281 285 289 292 293 293 293 294 291 286 292 294 295 293 291 291 291 291 291 292 294 291 288 288 292 294 295 295 296 296 297 297 297 297 298 298 299 299 300 300 300 299 299 299 300 300 301 301 301 302 301 301 302 302 303 305 305 306 307 307 308 309 309 310 310 312 314 316 318 320 321 322 322 321 321 320 320 321 320 321 321 321
286 284 282 282 280 281 286 289 291 293 292 294 295 290 286 291 294 295 294 292 292 293 292 293 294 293 291 289 290 292 294 294 295 295 295 296 296 296 297 297 296 297 298 298 299 299 299 298 299 300 300 300 300 300 301 301 301 301 303 302 303 303 305 306 307 307 308 309 310 310 310 312 315 316 318 320 321 322 321 322 322 321 320 320 320 320 319
285 285 283 281 284 281 287 289 290 291 294 292 292 282 283 290 294 294 294 293 293 294 294 294 294 292 290 290 290 294 295 295 296 295 295 295 295 295 297 297 297 297 298 298 298 298 298 298 299 300 299 299 299 299 300 301 300 301 302 302 302 303 304 305 306 307 308 308 309 310 310 311 313 315 317 319 321 321 321 321 321 321 319 319 319 319 319
284 282 284 286 284 287 289 289 291 292 294 292 283 280 286 292 294 294 295 294 294 294 294 295 289 291 291 292 294 295 295 295 295 296 296 296 295 295 295 295 295 296 296 297 296 297 298 298 298 299 298 298 298 299 299 299 300 301 302 303 303 303 303 304 304 305 306 307 308 309 310 310 311 313 314 315 318 320 320 320 320 320 319 319 318 318 318
284 285 282 283 285 285 290 291 290 291 289 281 282 287 294 294 293 294 294 293 294 294 294 293 292 292 293 294 295 294 295 295 295 295 295 295 295 296 296 295 295 295 295 296 297 297 297 297 298 298 297 297 297 298 298 298 300 301 302 302 302 302 302 302 303 304 305 307 308 309 309 311 311 311 313 314 317 319 319 319 320 319 319 318 317 316 316
284 284 282 280 278 284 290 290 288 290 284 283 289 292 293 294 293 293 292 293 293 294 292 294 294 294 294 294 294 295 295 295 295 295 295 295 294 294 295 295 295 294 295 295 295 296 297 297 297 297 297 296 297 297 297 298 299 300 300 301 301 301 301 302 302 303 304 305 306 307 308 309 309 309 311 313 314 316 317 317 318 318 317 316 316 314 313
281 282 280 279 283 287 292 291 285 286 288 291 293 292 290 293 293 293 292 293 294 294 294 293 293 294 294 294 294 295 295 295 295 295 295 295 294 294 295 295 295 294 294 295 295 296 297 297 297 297 297 296 296 296 297 299 299 299 299 299 299 299 300 300 301 301 302 303 305 306 306 307 308 309 309 311 312 313 313 314 315 315 315 315 315 314 312
284 282 283 287 290 291 293 293 291 292 293 294 293 293 292 292 292 295 293 293 294 294 294 294 294 293 293 293 294 293 293 294 294 293 293 294 294 294 294 294 295 294 294 294 295 295 296 297 297 297 296 295 295 295 297 298 297 298 298 298 298 298 299 299 300 301 302 302 303 304 305 306 306 306 308 310 310 312 312 311 311 311 312 314 312 311 312
288 290 291 291 291 291 292 293 294 293 294 295 295 294 292 293 294 295 294 294 294 294 294 293 293 293 293 293 293 293 293 293 293 294 293 294 295 295 295 295 294 294 295 295 295 294 295 296 296 296 297 296 295 296 297 297 297 297 297 297 297 297 297 298 299 299 300 300 301 302 303 305 305 304 305 307 308 309 310 310 310 310 310 310 310 311 311
286 280 290 289 289 291 292 291 293 294 295 294 294 293 293 293 294 293 294 294 293 293 293 292 292 292 292 292 292 292 292 292 292 292 293 293 294 294 294 294 294 294 294 294 294 294 294 296 297 297 297 297 298 298 298 298 298 298 297 297 296 296 296 297 299 299 299 299 300 301 302 304 304 303 303 305 307 306 309 309 309 308 308 309 309 310 309
285 284 288 290 292 292 293 293 290 290 290 291 291 292 292 292 293 293 293 293 292 293 292 292 291 291 292 291 290 290 290 291 292 292 293 293 293 294 295 295 294 294 294 293 294 294 294 296 296 297 297 297 298 298 298 298 298 297 297 296 296 296 296 297 296 297 298 292 295 299 300 301 301 302 304 305 305 306 308 309 309 309 309 308 308 309 309
288 289 290 290 291 291 291 293 295 293 292 291 292 293 293 293 293 293 293 294 293 293 293 293 292 291 291 291 291 290 290 291 291 292 293 293 293 294 294 294 294 293 293 293 294 294 295 296 296 297 297 297 298 298 298 298 298 296 296 295 295 296 296 296 296 297 297 298 298 298 300 300 301 302 304 304 303 304 307 312 312 312 309 308 307 307 308
283 284 287 290 285 284 289 291 292 293 294 294 293 293 293 293 293 293 292 293 294 294 294 293 293 291 291 291 291 290 290 291 292 292 292 293 293 293 294 294 294 295 294 295 294 295 296 297 297 296 297 297 298 298 298 298 298 296 296 295 295 294 295 295 296 296 297 297 298 298 299 299 300 302 292 291 301 306 306 294 290 292 296 308 309 310 307
283 289 291 292 291 291 292 293 293 294 295 294 293 293 293 293 293 293 293 292 293 292 293 293 292 291 290 290 291 290 291 291 292 292 292 292 292 292 293 293 294 294 294 295 295 295 296 297 296 297 297 297 298 298 298 298 297 296 295 294 293 293 293 294 294 295 296 296 298 299 299 299 300 299 303 300 287 285 290 295 293 291 293 293 294 294 306
290 292 292 292 291 289 292 294 294 294 295 294 293 293 293 294 294 294 293 293 292 292 292 292 293 290 289 290 291 290 291 292 292 292 292 292 292 292 293 292 292 293 294 294 294 295 296 296 296 297 297 297 297 297 297 296 295 294 293 292 292 292 292 293 293 292 295 295 295 296 297 298 299 300 299 301 300 289 287 289 291 290 291 291 290 291 293
288 293 293 293 292 292 293 294 294 294 295 294 293 293 293 293 293 293 293 292 293 292 291 290 290 291 289 290 290 290 290 291 291 291 290 290 290 291 291 292 292 293 293 294 294 295 296 296 296 296 297 297 297 295 295 294 293 292 292 292 292 291 291 291 291 291 292 294 294 295 296 297 298 299 299 298 299 299 296 288 289 290 289 290 290 291 292
293 293 294 294 293 292 294 292 292 294 294 294 294 294 294 293 294 293 292 293 292 292 290 289 289 290 291 290 291 291 290 290 290 289 291 291 291 291 291 291 292 293 293 294 294 295 296 296 296 296 296 296 295 294 293 293 292 292 291 292 292 292 292 291 290 291 291 293 294 294 296 297 298 298 299 300 299 300 299 298 296 292 289 289 290 290 289
293 293 292 290 290 290 292 290 290 294 294 294 294 294 294 294 292 293 294 293 293 292 291 290 290 290 291 291 291 291 290 290 290 290 290 290 290 290 291 292 293 293 292 293 295 294 293 295 296 296 296 295 294 293 293 292 292 291 291 291 291 289 287 288 291 291 291 292 293 294 295 296 297 297 299 299 299 299 300 298 298 298 298 296 290 289 295
293 293 293 288 287 289 290 292 293 294 294 294 293 293 293 293 293 292 291 291 291 291 291 291 291 290 290 291 291 290 290 290 290 290 289 289 291 292 292 293 293 293 293 294 294 295 295 296 296 296 296 295 293 293 293 292 291 291 291 291 291 290 291 290 290 290 290 290 292 293 294 295 297 298 298 298 298 299 299 300 299 300 299 297 294 288 288
292 292 293 293 292 292 293 294 293 293 293 294 293 293 292 291 291 291 290 290 291 291 290 291 292 291 290 291 291 290 289 290 289 289 289 290 291 291 292 292 293 293 294 294 295 296 296 296 296 295 295 295 294 293 293 292 292 291 291 291 291 290 291 291 291 291 291 291 291 292 291 292 295 297 298 298 298 300 299 301 299 301 300 295 294 291 290
293 293 293 293 293 293 292 291 291 292 292 292 291 291 291 291 290 290 290 290 290 289 290 291 291 290 291 290 290 290 289 288 288 289 289 290 290 290 291 291 291 293 295 296 295 295 294 295 295 294 295 295 294 293 293 293 293 293 293 293 292 292 292 292 292 292 291 291 291 288 290 292 294 296 297 298 298 297 298 297 298 297 296 297 292 294 291
293 293 293 293 293 292 291 291 292 291 291 292 291 291 291 290 290 289 289 290 290 290 290 290 290 290 290 290 289 289 289 288 287 288 288 288 287 287 288 289 288 289 291 292 292 292 294 294 295 295 296 296 294 293 293 293 293 293 293 293 293 290 288 288 288 291 292 291 290 291 291 292 293 294 294 295 296 297 297 297 296 296 297 298 298 295 293
292 293 293 292 292 291 291 291 291 291 291 292 291 289 290 289 289 289 290 289 290 290 290 289 289 289 289 288 288 287 286 286 285 286 286 286 286 286 286 288 289 287 288 288 288 293 294 294 294 296 297 297 295 294 294 293 293 293 293 291 293 293 291 287 289 290 290 289 290 290 290 292 293 294 294 294 296 295 296 297 297 296 297 296 296 294 293
290 289 289 290 290 290 290 291 290 290 291 290 289 291 291 291 290 290 290 290 290 290 289 288 288 287 287 287 287 286 285 285 285 284 285 285 285 285 286 287 288 288 288 291 294 295 295 294 295 296 296 296 296 295 294 293 292 293 293 293 293 294 290 289 289 291 290 290 290 291 291 292 292 293 294 294 295 294 296 296 296 296 295 297 299 296 292
290 289 290 290 290 288 289 289 291 291 291 291 291 291 290 291 291 290 290 290 290 289 288 287 288 287 287 286 285 285 284 285 287 286 285 284 284 285 286 287 289 291 294 296 296 295 295 296 296 296 295 295 297 296 295 293 293 294 294 293 293 293 293 293 291 291 291 289 290 289 291 291 293 293 293 294 295 295 294 294 295 295 296 297 297 295 290
293 292 292 292 292 292 292 292 291 291 291 289 289 290 291 291 291 291 290 289 289 288 289 288 287 286 285 285 284 284 283 283 283 283 284 284 285 285 286 288 290 292 294 296 295 294 295 296 296 294 293 295 297 297 296 294 293 293 294 294 293 292 292 292 292 292 291 290 290 291 291 292 292 291 292 294 295 294 295 294 295 295 295 294 294 292 290
293 292 292 292 293 293 293 293 293 293 292 289 288 289 291 291 291 291 290 290 291 290 289 288 287 286 285 284 284 284 283 283 283 283 284 284 284 286 286 286 288 290 292 294 295 295 295 296 288 286 290 297 298 298 296 292 293 294 294 294 293 292 291 291 291 291 291 291 290 289 290 290 290 291 293 293 294 295 295 295 294 295 295 294 292 291 290
293 292 292 292 293 293 293 293 293 293 292 291 290 290 291 291 291 291 291 291 291 290 289 288 287 286 285 285 285 284 284 284 285 284 284 284 285 285 285 285 287 287 291 290 292 293 294 295 288 285 292 298 298 299 295 286 292 294 293 292 292 292 292 292 291 291 290 290 290 290 289 290 291 292 292 294 294 294 294 294 295 293 293 292 290 290 290
293 293 293 293 293 293 293 294 293 293 292 291 291 291 291 291 292 292 292 291 290 290 289 288 288 287 286 285 285 284 283 283 283 283 283 283 284 284 285 286 288 288 289 288 290 291 294 291 286 290 297 298 298 299 294 287 286 295 295 292 291 291 291 291 290 290 290 291 291 292 291 292 292 293 293 294 295 295 294 293 294 293 293 292 291 290 290
292 293 294 294 294 293 293 293 294 293 293 291 291 291 292 291 292 292 291 291 291 290 290 289 289 287 286 285 285 285 284 284 283 283 283 283 285 285 285 287 288 288 288 289 291 292 293 290 291 294 296 297 298 299 294 289 287 296 295 295 292 291 290 290 290 290 289 290 291 291 292 292 292 293 293 295 295 295 292 293 293 294 293 293 292 292 291
292 293 293 293 293 293 293 292 293 293 293 293 292 291 292 292 292 292 291 291 291 289 289 289 289 287 287 287 287 286 285 285 284 283 283 284 286 287 288 290 290 292 291 287 291 292 289 285 290 296 296 297 297 296 295 292 290 296 296 295 294 292 291 290 290 290 290 290 290 289 292 292 292 293 292 293 294 294 293 293 293 292 292 292 293 292 291
293 293 293 293 293 293 293 292 292 293 293 293 293 292 293 292 292 292 291 290 290 290 289 289 289 289 289 289 288 287 287 287 287 286 286 286 286 286 287 287 290 292 291 289 290 289 289 289 293 293 295 295 297 290 293 291 297 298 297 295 295 294 293 291 290 289 289 289 289 290 291 291 292 292 292 293 292 292 292 291 292 291 292 292 292 291 291
294 294 294 293 293 293 293 293 293 293 294 294 293 293 293 293 292 292 292 291 291 290 289 289 287 289 290 289 288 287 287 287 287 288 288 287 287 287 286 287 289 291 286 287 289 291 293 293 293 290 292 291 293 288 285 291 298 297 297 296 295 293 293 292 291 290 289 289 289 289 289 290 291 291 291 291 292 291 291 291 291 291 291 291 291 291 290
294 294 294 294 294 294 294 293 293 293 293 294 294 293 293 294 293 293 292 292 291 290 289 289 288 286 287 288 288 287 287 288 287 288 288 289 289 288 287 289 291 290 284 288 290 293 292 293 292 292 286 286 288 285 286 296 298 297 297 296 295 294 293 292 291 291 290 289 288 288 288 288 288 288 288 289 289 290 290 290 290 289 289 289 289 289 289
295 295 295 294 294 294 294 294 293 293 292 293 295 295 294 294 293 292 292 291 291 290 289 288 288 288 288 288 287 287 287 287 288 288 288 288 289 289 289 289 290 288 285 288 291 291 292 291 291 286 284 284 285 285 294 297 297 297 296 295 295 295 294 293 292 291 290 290 289 288 287 287 287 287 287 287 287 287 287 287 288 288 288 288 289 289 289
294 295 295 295 295 294 294 293 293 293 294 294 295 294 294 293 293 293 293 292 291 290 289 289 288 288 288 288 288 288 288 288 288 288 288 287 287 288 289 286 289 289 287 285 291 292 291 290 286 283 284 284 285 285 294 295 295 295 295 294 295 294 294 294 293 292 291 291 290 290 289 288 287 287 287 287 286 287 287 287 287 288 288 288 288 289 289
294 295 295 291 294 294 294 294 294 295 294 294 294 293 293 293 293 293 293 292 291 291 291 290 289 289 289 289 288 288 288 288 288 289 288 288 288 288 287 286 287 286 284 284 290 291 291 284 283 284 284 285 285 292 294 293 293 294 294 294 293 292 293 294 293 293 292 292 291 291 290 289 289 288 287 287 287 287 287 287 288 289 289 289 290 290 290
294 294 294 295 295 295 295 295 295 294 294 293 292 292 293 294 293 293 293 294 293 292 292 291 290 290 290 289 289 288 288 288 288 288 289 289 287 287 285 284 284 284 285 289 289 289 287 286 284 283 284 284 285 293 293 293 293 293 293 293 293 293 292 293 292 293 293 292 291 290 289 290 290 290 289 288 288 288 288 287 287 287 287 288 288 288 288
293 293 294 294 294 295 295 295 294 293 293 293 293 293 293 295 294 294 294 294 294 293 293 292 291 291 291 290 290 289 289 289 287 288 289 289 290 289 289 289 287 283 283 284 284 284 281 282 282 283 284 285 290 292 292 292 292 292 292 292 292 292 292 292 292 291 291 291 291 292 292 291 292 292 290 290 289 289 289 289 289 288 288 288 288 287 287
294 293 294 294 295 295 295 294 293 292 293 293 293 293 294 294 294 294 294 294 293 293 292 292 291 291 291 290 290 290 289 289 289 288 289 290 290 289 288 284 282 282 286 290 290 289 283 281 283 283 284 286 292 292 291 291 291 290 290 289 290 289 290 290 291 291 291 290 290 289 290 289 289 289 289 289 288 288 287 287 288 287 287 287 287 287 286
294 294 293 294 293 293 293 292 292 292 293 294 293 294 294 294 292 293 293 293 293 291 292 292 292 291 291 291 290 290 290 289 288 289 289 288 288 288 288 288 287 284 285 290 290 289 284 281 283 285 287 290 291 291 291 290 290 290 289 288 289 289 288 288 286 287 289 289 289 289 288 287 287 286 286 287 286 286 286 285 285 284 284 285 285 285 285
293 292 292 292 293 294 294 293 293 293 294 294 295 294 294 293 292 292 294 294 293 291 291 291 291 292 292 292 291 291 290 289 288 287 289 288 288 287 286 287 286 286 287 287 288 289 290 290 289 288 289 289 290 290 290 290 289 289 288 289 289 289 289 288 289 289 289 289 289 288 288 288 287 287 287 286 285 285 285 285 285 285 285 285 285 285 284
294 294 293 293 294 295 295 295 295 295 295 295 295 294 293 293 293 293 293 289 293 292 292 291 290 291 292 292 291 291 291 290 289 288 287 288 288 288 285 284 287 285 287 289 289 290 289 288 286 285 286 289 289 288 285 285 288 288 288 287 287 288 288 288 288 288 288 288 289 288 288 288 288 287 286 286 286 286 285 285 285 285 284 284 284 284 283
Wind_Speed
6 7 9 8 6 7 6 7 5 5 4 2 2 6 8 9 6 5 10 12 13 11 9 7 7 9 9 9 9 9 10 11 11 12 13 14 14 14 14 14 14 15 15 14 15 14 13 14 14 13 11 11 9 8 7 7 6 5 4 3 3 4 3 3 4 4 5 5 5 5 6 6 6 7 6 6 6 6 6 7 6 7 8 9 9 10 9
9 8 8 9 8 6 7 8 8 7 8 8 8 8 9 8 9 11 13 15 13 9 9 9 10 9 9 9 9 9 11 12 12 13 14 14 14 14 14 14 14 14 15 15 15 15 15 15 14 13 12 11 10 8 7 6 6 5 4 2 2 2 3 3 3 4 4 4 5 5 6 7 7 7 6 6 7 7 7 8 8 8 8 9 10 11 11
8 8 7 7 7 5 5 6 5 7 10 11 9 8 7 8 11 12 14 13 11 7 8 10 8 8 9 10 12 12 11 12 12 13 14 13 14 14 14 14 14 14 14 15 15 15 15 15 14 12 11 11 10 10 8 7 6 5 4 3 2 1 1 1 0 1 2 3 3 4 4 5 6 7 8 7 7 8 8 8 9 8 8 9 10 10 11
7 6 6 6 6 7 6 4 3 5 3 5 6 5 5 4 6 9 11 8 7 8 9 9 9 11 12 12 12 11 10 11 12 13 13 13 13 13 13 13 13 13 14 14 14 14 14 13 13 12 11 11 11 10 9 8 7 6 4 3 2 3 1 1 1 1 2 2 3 3 4 4 5 5 6 7 8 8 8 9 8 8 9 10 9 9 8
5 9 6 4 6 5 5 5 4 5 6 6 5 6 6 9 4 5 2 5 10 11 10 12 12 12 13 13 12 11 12 11 12 12 12 12 12 13 12 13 13 13 13 13 13 13 12 12 12 13 12 11 10 10 9 8 7 7 6 5 3 2 2 2 1 1 1 1 1 2 3 3 3 4 5 7 8 8 9 8 7 8 10 10 9 8 5
4 9 8 7 5 8 7 3 2 1 4 2 3 3 5 6 7 4 6 12 13 11 10 12 13 12 11 10 10 9 9 9 11 11 12 12 12 12 12 12 12 12 11 11 11 12 12 12 12 11 12 11 10 9 8 8 8 7 6 6 6 6 5 4 3 2 1 1 3 2 3 3 3 4 5 6 6 6 6 8 9 9 10 10 8 9 9
5 8 8 6 9 7 5 3 4 3 4 5 10 8 6 4 5 9 14 15 14 12 11 12 13 13 13 12 12 11 9 9 9 10 11 10 9 8 8 9 10 10 10 11 11 12 12 11 11 11 12 12 10 10 9 9 8 7 7 7 7 7 7 7 6 4 3 3 3 3 4 4 4 5 5 5 6 6 6 7 9 9 11 11 10 9 10
4 5 7 7 3 6 3 5 4 4 6 9 12 9 7 4 6 10 13 12 12 12 13 12 12 13 13 12 11 10 10 9 8 9 9 9 8 9 8 8 8 8 9 10 10 10 9 10 10 11 11 11 11 10 10 9 8 7 7 6 7 7 6 6 6 6 6 5 4 4 4 5 6 6 7 6 7 7 7 7 7 8 9 10 10 10 11
5 5 8 5 5 6 6 4 6 5 4 7 4 2 4 4 6 9 12 13 13 12 11 11 11 12 11 10 9 8 9 9 9 9 9 8 8 8 8 8 8 8 8 8 8 8 8 9 10 10 10 10 9 9 8 8 8 7 7 7 7 7 7 7 7 6 6 6 5 5 5 5 6 7 8 8 8 7 7 8 9 10 10 10 9 9 10
3 5 8 5 4 7 5 4 5 4 4 6 4 4 5 4 4 9 13 14 14 13 12 11 9 7 8 6 6 6 7 7 7 8 7 7 8 8 8 8 7 7 6 6 6 6 7 8 9 8 8 8 8 8 8 8 9 8 8 8 8 8 8 8 8 8 7 7 6 6 5 5 6 6 7 7 8 8 9 9 10 10 9 9 7 7 7
4 6 8 8 8 1 4 6 3 4 3 5 3 4 5 7 8 11 12 14 13 12 11 10 7 7 6 6 6 5 5 6 6 6 7 8 7 8 8 9 9 8 8 8 8 8 8 9 9 9 9 8 8 8 8 8 8 8 8 8 9 9 9 9 9 8 7 7 7 7 6 6 5 6 6 7 7 7 8 8 9 9 8 8 8 7 7
2 6 7 8 1 3 2 3 1 4 4 3 5 6 6 12 10 9 10 11 10 9 6 5 3 3 4 8 7 5 5 6 7 7 7 7 7 8 8 9 8 7 7 8 8 9 9 9 9 8 8 8 8 8 7 8 8 7 7 8 9 9 9 9 8 8 8 7 7 7 7 7 6 5 5 6 6 7 7 8 8 8 8 8 9 7 6
2 1 6 0 4 3 3 3 5 4 3 5 5 5 7 11 12 9 9 9 7 6 6 4 2 7 8 9 7 6 5 5 6 6 6 7 7 8 9 9 8 8 8 7 8 8 7 8 8 7 7 7 8 7 7 7 7 7 7 7 8 8 9 9 9 9 8 8 8 8 7 7 7 6 5 5 6 6 8 8 7 7 7 7 7 6 6
7 5 7 7 3 3 4 4 5 5 2 4 1 5 5 11 10 9 9 10 8 7 7 7 8 8 8 8 6 6 6 6 6 6 7 7 7 7 7 7 7 8 8 7 8 8 8 8 8 8 8 8 8 8 8 8 9 8 8 8 8 9 9 9 9 9 9 9 8 7 7 7 7 7 6 6 5 6 7 7 8 8 8 8 8 7 6
0 2 5 4 7 4 4 4 2 5 1 4 4 7 10 9 10 10 9 8 8 7 9 9 8 7 7 7 6 5 6 6 6 6 7 7 8 8 8 8 8 8 8 7 8 8 8 8 7 7 8 8 8 8 9 10 9 9 9 9 9 10 10 10 10 10 10 10 8 7 7 8 8 7 8 7 6 6 7 7 8 8 8 7 8 8 8
3 5 5 2 5 2 2 4 1 4 7 6 6 8 9 8 7 7 7 8 7 7 7 7 7 6 6 5 5 5 5 5 5 6 6 7 7 7 7 8 8 8 7 7 7 7 7 7 7 7 7 8 8 8 10 9 9 9 9 10 10 10 9 10 11 11 11 10 9 8 9 8 8 8 7 8 8 8 9 9 8 8 8 8 8 9 10
4 4 5 4 3 5 6 8 11 11 9 6 6 7 7 7 6 5 7 7 7 6 6 6 5 5 5 5 4 5 5 5 5 6 7 6 7 7 7 7 7 8 7 8 8 8 8 8 7 7 7 7 9 10 9 9 10 10 10 10 10 10 11 11 11 11 10 10 10 10 9 8 8 8 7 7 8 8 9 10 10 10 10 10 11 11 10
7 8 7 6 7 8 9 9 9 10 9 8 7 7 7 7 7 6 6 6 6 6 6 4 5 5 5 4 4 4 4 5 5 5 5 6 6 6 7 7 8 8 7 7 7 8 9 8 7 6 6 7 9 9 8 9 9 10 10 10 10 11 11 11 12 12 12 12 12 12 11 9 9 8 8 7 7 9 9 10 11 11 11 12 12 12 10
3 4 5 8 8 7 8 9 8 9 8 8 7 8 7 7 7 7 7 7 6 6 6 6 4 4 4 4 4 5 5 5 6 6 6 7 7 7 8 8 8 8 8 7 8 9 9 8 7 8 8 8 9 10 10 11 11 12 11 11 11 10 11 12 12 12 13 12 11 11 12 10 10 10 9 8 7 8 9 10 11 11 11 12 12 12 12
1 7 8 7 6 5 6 6 6 6 7 7 7 7 6 6 6 6 6 5 5 3 4 4 4 3 3 3 4 4 5 5 6 6 6 7 7 7 7 8 8 8 7 8 8 8 8 9 9 9 10 11 11 11 11 12 12 12 13 13 14 14 14 13 12 12 13 13 13 12 12 11 10 10 10 9 8 6 7 8 9 9 9 10 12 11 11
7 9 8 6 5 4 4 4 4 5 5 6 6 6 7 7 7 6 5 4 3 4 4 3 2 2 3 3 4 5 5 5 5 6 7 7 8 8 8 8 8 7 7 8 8 8 8 8 9 9 10 11 12 12 12 12 13 13 14 15 14 15 14 13 14 13 12 13 12 12 12 12 12 11 10 10 10 9 7 5 4 4 4 2 3 5 2
5 5 8 9 5 5 7 5 5 5 4 4 5 5 4 4 4 3 3 4 4 4 4 4 4 4 4 5 5 6 6 5 6 7 7 7 8 9 8 7 7 6 6 6 7 8 8 8 9 10 11 12 12 13 13 13 14 14 15 14 15 14 13 13 12 12 11 12 12 12 12 13 12 10 5 4 2 6 4 9 9 7 6 2 3 2 1
1 5 9 6 3 5 5 7 6 5 3 3 3 3 3 2 2 1 1 1 1 1 2 3 3 5 5 6 6 6 5 6 6 7 8 9 9 9 9 8 6 6 7 7 8 9 9 9 10 11 12 13 13 14 14 14 14 14 14 14 13 13 13 13 13 12 12 12 11 11 11 12 12 13 9 5 1 2 6 4 8 8 3 3 7 7 5
7 6 8 4 2 4 6 6 5 4 3 1 2 2 2 1 2 1 1 2 3 3 2 2 4 3 5 5 5 6 6 6 8 8 8 9 9 9 8 7 7 7 7 8 8 9 9 10 11 12 13 13 14 14 14 14 13 14 14 13 13 12 12 12 12 11 12 12 13 13 12 12 12 11 12 9 5 3 2 5 4 6 11 9 4 5 6
5 4 6 6 6 6 5 5 4 3 2 1 1 1 1 0 1 1 2 1 1 2 3 2 1 3 4 5 5 6 7 7 7 8 9 8 7 7 7 7 7 7 7 8 9 10 10 11 12 13 13 14 14 14 13 13 13 13 14 14 14 14 13 12 12 13 12 12 12 12 13 12 12 12 11 12 10 6 4 4 2 5 4 5 9 8 9
5 6 6 5 5 5 3 3 4 3 2 1 1 1 3 3 6 2 2 2 2 1 1 2 2 2 3 4 5 6 7 7 7 7 7 7 7 6 6 6 6 7 8 9 10 10 11 12 12 13 14 14 13 13 12 12 12 13 14 14 15 14 13 13 12 11 11 11 11 12 12 12 12 12 12 11 11 8 7 6 4 3 3 5 7 7 5
5 5 5 4 3 3 1 2 2 3 2 1 1 1 2 1 5 4 1 1 1 1 1 2 3 3 4 5 6 6 7 7 7 6 7 7 6 6 6 6 7 8 9 9 10 10 11 12 12 14 14 14 12 12 12 12 13 13 14 14 13 14 15 12 12 12 12 10 10 11 11 11 11 12 11 12 11 10 8 7 8 8 8 5 4 2 6
5 4 1 1 1 1 2 2 1 1 1 1 2 3 1 1 3 2 4 3 3 2 2 2 3 5 6 6 7 7 7 7 7 7 7 6 5 5 6 7 8 8 8 9 9 10 10 11 12 14 15 14 12 11 12 12 12 13 13 13 13 12 12 12 11 12 11 10 10 10 11 11 10 10 10 10 10 9 9 9 9 9 8 5 4 6 8
5 4 2 3 4 3 2 2 2 2 2 1 1 1 2 3 2 2 2 2 2 3 4 5 4 5 6 7 7 7 7 8 8 8 6 5 5 6 6 7 8 8 8 8 8 8 9 10 12 14 15 13 12 12 12 12 12 12 12 12 12 12 11 10 10 11 11 11 10 10 10 10 11 10 10 10 9 9 8 8 8 8 9 8 8 6 5
5 4 3 3 2 2 3 3 3 3 2 2 3 2 2 4 3 2 2 3 3 4 5 6 6 6 6 7 7 7 8 8 7 7 6 5 5 7 8 8 9 8 6 6 7 8 9 11 13 14 14 13 13 13 13 13 12 13 13 13 11 9 10 11 11 10 10 10 9 8 8 9 10 10 9 9 9 9 7 5 4 4 5 9 9 8 7
5 4 3 3 3 3 4 2 2 2 3 3 3 3 3 3 3 3 3 3 4 5 5 5 5 5 5 5 5 4 5 4 4 5 6 5 5 6 7 7 7 5 6 7 9 8 10 11 11 11 13 14 13 12 13 13 12 12 11 11 10 10 13 12 10 9 8 7 6 7 8 8 9 10 6 7 7 7 7 4 3 3 4 7 7 8 8
7 6 6 5 4 4 4 3 3 4 3 4 4 5 4 4 4 4 4 4 4 6 5 5 5 4 3 3 2 2 2 3 4 4 5 5 5 5 5 7 8 8 8 8 7 7 9 10 11 11 13 13 13 12 12 12 12 11 11 11 11 10 6 6 6 7 7 5 6 6 7 7 7 9 8 6 5 6 6 5 4 3 2 2 3 5 9
5 5 5 5 5 5 5 4 5 5 5 5 4 5 4 4 3 4 4 5 5 4 4 4 2 0 0 0 1 2 2 4 5 5 4 4 5 5 5 5 6 6 7 7 6 7 8 9 10 11 12 12 13 13 11 12 11 10 10 10 10 8 5 2 3 5 6 6 5 5 6 6 6 7 7 7 6 5 4 4 2 2 2 4 5 6 7
4 2 3 1 2 3 4 4 5 5 5 5 5 5 4 4 4 4 4 4 4 4 3 2 0 0 0 1 2 2 2 4 2 2 3 6 6 5 5 6 6 8 6 5 4 5 6 8 9 10 12 12 12 12 10 11 10 10 10 10 9 8 7 5 1 4 4 5 5 4 6 4 6 6 7 7 5 5 4 3 2 3 3 3 5 7 11
2 1 1 1 1 3 4 4 4 5 5 5 6 4 4 4 3 3 2 5 4 3 2 0 1 1 2 2 2 2 1 2 5 7 6 5 6 6 6 7 8 6 5 3 4 5 7 8 8 11 12 11 11 12 12 12 11 9 10 9 8 7 7 6 3 1 2 3 3 3 4 3 3 5 5 6 6 6 4 3 3 4 3 4 6 9 8
4 3 2 2 2 2 3 3 3 4 5 3 3 3 5 4 3 4 3 4 2 2 1 1 2 1 2 3 3 2 2 2 4 6 5 5 6 5 5 6 6 6 5 2 5 8 8 7 9 13 11 8 9 12 12 10 9 9 8 8 7 7 6 6 5 4 3 2 0 1 2 2 2 4 5 6 6 5 3 3 3 3 4 5 6 8 9
4 3 2 1 1 2 3 3 3 3 4 5 6 6 5 4 4 3 3 4 3 1 1 1 2 3 4 3 2 2 3 2 2 3 3 4 4 4 5 6 5 4 5 3 7 9 8 8 12 16 12 7 9 10 10 11 8 7 8 8 8 7 7 6 6 5 5 3 2 2 1 2 2 5 6 6 4 5 5 3 5 4 4 6 7 9 10
5 3 3 2 2 3 4 4 4 4 4 5 5 5 4 3 3 3 3 3 3 2 1 2 3 4 3 2 2 4 4 2 3 3 3 4 4 5 5 2 2 3 3 5 8 7 7 10 13 11 7 7 8 8 8 10 13 7 8 8 8 8 8 7 7 7 6 6 5 3 3 3 3 6 6 6 6 5 4 4 4 5 5 6 7 9 9
6 4 3 3 3 3 4 4 5 5 5 5 5 5 4 3 3 4 3 3 1 1 3 4 4 4 4 3 4 3 3 4 3 3 3 4 4 4 2 2 2 2 3 6 8 7 7 9 11 9 6 7 8 8 7 8 12 7 9 9 9 8 8 8 8 7 7 7 6 5 5 4 3 2 3 5 5 5 5 5 6 7 6 7 8 9 10
6 6 6 5 4 4 4 4 6 6 5 5 4 5 4 4 3 3 2 3 1 1 3 3 4 5 6 6 5 3 3 3 3 3 4 3 3 4 3 3 3 3 5 8 7 5 8 11 10 6 6 7 7 7 7 9 11 7 8 9 9 9 8 8 8 8 8 8 7 6 7 6 7 6 7 7 7 6 6 7 7 7 8 8 9 9 10
7 6 6 6 5 5 4 4 5 6 6 6 6 5 4 4 3 3 3 2 1 1 3 3 4 4 3 3 3 3 2 3 4 3 3 4 4 2 1 1 3 3 6 7 6 7 8 7 7 7 7 7 5 8 7 10 6 7 8 8 8 9 9 9 8 9 8 8 8 8 8 7 8 8 8 8 8 8 8 8 8 9 9 10 10 9 9
9 8 8 7 6 6 5 5 5 5 6 6 6 6 5 5 4 4 3 2 1 2 2 3 1 4 3 2 2 2 3 3 3 3 3 3 2 2 2 1 3 3 9 9 7 5 4 5 6 6 7 8 7 10 11 9 4 7 8 8 9 8 9 8 9 8 8 8 8 8 8 8 7 7 8 8 8 9 8 9 9 9 10 10 9 9 9
10 10 10 9 8 7 7 6 6 6 6 7 7 7 6 6 5 4 3 3 2 2 2 2 3 4 5 4 3 3 3 2 3 3 3 2 0 2 3 3 3 4 7 7 6 4 4 5 6 6 9 9 8 12 14 5 5 5 7 7 8 8 8 8 8 8 8 9 9 9 9 8 8 8 8 9 9 9 9 9 10 8 8 8 8 9 9
9 9 9 9 9 8 7 7 6 6 6 6 7 7 7 6 5 5 4 3 3 2 3 2 3 3 4 3 3 3 2 3 3 3 3 3 3 2 0 2 3 3 4 6 4 4 4 5 5 9 11 11 12 12 7 5 5 5 6 7 7 8 8 8 8 8 8 9 9 8 8 8 8 8 9 9 9 9 9 9 9 9 7 8 8 8 9
7 8 10 10 9 8 8 8 7 7 6 5 5 6 7 7 6 5 4 4 4 3 3 2 2 3 3 3 3 2 2 1 1 2 2 2 2 3 3 1 1 2 4 8 4 3 4 5 7 10 10 11 11 12 4 5 5 6 6 6 7 7 8 8 8 8 8 8 8 8 8 8 8 8 8 8 8 8 8 8 8 7 7 7 7 8 8
6 7 8 9 9 9 8 8 7 6 6 5 6 6 7 7 7 6 5 5 4 4 4 3 2 2 3 3 3 2 2 2 1 2 2 3 3 3 4 4 3 4 7 8 3 3 4 5 6 8 9 9 11 6 4 5 5 5 6 6 7 7 8 8 8 8 8 8 8 7 7 7 7 8 8 7 8 8 8 8 8 8 8 8 8 8 7
5 6 7 8 9 9 8 7 6 7 7 7 7 6 7 8 8 7 6 5 5 5 4 4 3 2 2 3 3 3 3 3 3 2 1 2 3 2 4 2 1 3 5 3 4 3 4 5 7 9 9 10 11 4 4 4 5 5 6 6 6 7 7 7 7 8 7 8 8 9 9 9 8 8 8 8 7 7 7 7 7 7 7 8 8 9 8
5 6 6 7 8 7 7 7 8 8 8 8 7 6 6 7 7 8 7 6 5 5 5 5 4 4 4 3 3 3 3 2 1 3 2 2 1 2 2 2 3 5 3 4 3 3 3 6 7 8 8 10 4 4 4 5 4 5 5 6 6 5 4 4 5 6 7 7 7 7 6 6 8 8 7 7 7 7 7 7 7 7 7 7 7 6 7
5 5 5 6 6 7 8 8 8 8 8 7 7 6 5 6 7 7 7 7 7 6 6 6 5 5 4 4 3 3 2 2 3 1 3 1 2 2 4 4 4 6 5 0 1 2 3 5 6 7 9 8 3 4 5 5 6 6 6 5 4 5 4 4 4 4 5 6 7 7 7 7 7 7 7 7 7 7 8 7 7 6 6 6 7 7 6
4 4 5 5 6 7 7 7 7 7 7 7 6 5 6 6 6 7 7 7 7 6 5 5 5 5 5 5 5 4 3 3 3 1 2 2 1 1 2 1 2 3 6 2 1 1 4 4 5 4 5 2 4 4 5 5 6 5 5 6 7 6 7 7 8 8 7 7 7 7 6 6 6 7 7 6 7 7 7 7 7 8 9 7 6 6 5
5 5 5 5 6 6 8 8 8 8 7 6 6 5 6 7 6 6 7 7 7 7 7 6 5 5 5 5 5 5 4 4 4 3 3 3 2 2 1 2 3 2 2 2 1 0 0 1 1 1 1 2 3 3 3 4 3 4 4 4 4 6 6 6 6 5 7 6 7 7 7 7 7 7 6 7 7 7 7 7 6 6 6 6 6 6 6
6 6 5 5 6 6 6 6 6 5 5 5 6 6 6 6 6 6 6 8 7 7 7 7 6 6 5 5 5 5 5 5 5 5 4 4 3 4 4 3 3 4 4 2 1 1 1 2 2 4 4 2 3 4 5 5 5 4 4 5 5 5 6 6 6 5 5 5 5 6 8 7 7 7 7 7 7 7 7 7 7 7 6 6 6 7 7
Wind_Direction
69 41 45 32 49 51 65 64 53 45 21 17 280 6 356 321 247 264 127 129 116 120 117 113 108 111 102 101 89 84 92 95 96 94 88 83 80 76 72 69 68 66 65 61 57 54 54 54 55 53 56 62 67 78 78 85 90 95 116 134 150 169 177 200 215 237 241 242 242 234 225 224 215 206 207 203 202 197 191 196 196 197 191 187 183 188 180
107 86 62 49 53 66 73 61 65 75 77 74 68 58 37 36 75 97 113 100 98 114 122 122 115 112 106 98 99 97 93 92 90 88 85 82 79 76 73 71 69 67 66 63 60 57 51 49 49 51 51 49 49 51 61 63 71 76 89 98 151 163 172 180 194 219 227 236 239 234 236 235 235 229 219 212 211 211 209 207 198 200 195 191 190 186 183
129 119 114 91 70 34 30 25 47 80 92 91 86 81 69 76 76 88 97 97 104 100 119 117 115 117 113 107 97 90 88 89 88 86 84 81 78 75 72 69 67 66 63 60 58 55 54 51 48 48 50 53 49 48 45 49 53 60 85 87 116 142 156 131 161 209 227 243 257 250 232 241 243 242 238 232 234 234 223 209 200 190 193 194 193 191 186
156 148 132 88 59 24 356 342 11 20 26 77 40 47 1 3 119 117 118 110 119 132 126 125 125 121 112 105 99 95 91 88 86 83 80 76 73 71 68 63 61 60 58 54 51 51 49 48 49 46 46 48 48 49 45 46 47 47 59 67 86 106 108 144 163 207 210 208 231 245 258 253 250 252 253 246 234 232 226 212 194 179 183 193 192 188 181
196 154 118 104 90 37 335 247 148 108 83 85 87 58 39 28 3 159 176 86 118 133 138 130 124 116 108 103 98 92 86 80 78 76 74 69 62 59 57 55 53 51 52 51 47 42 44 39 38 39 37 41 41 38 45 43 48 53 53 44 43 37 17 348 69 109 272 283 284 283 280 273 276 273 262 248 239 230 221 211 201 194 193 188 187 184 193
150 147 147 144 186 213 225 67 112 56 136 143 70 58 10 22 12 40 70 118 126 136 136 126 120 110 99 95 86 87 89 85 79 73 66 61 58 49 40 36 35 36 39 40 38 36 35 32 28 28 29 24 25 33 33 39 37 37 47 49 43 40 39 41 15 350 323 287 291 281 269 268 266 264 258 250 248 239 224 209 218 210 200 199 194 198 205
165 145 147 198 221 226 57 213 158 137 93 102 100 90 54 62 81 108 113 126 137 137 129 118 112 107 103 97 91 79 74 89 91 87 82 74 66 65 60 44 33 29 27 30 28 27 24 22 20 18 21 14 9 19 20 25 25 27 28 37 42 38 35 26 22 19 345 322 286 276 267 260 262 259 252 254 248 238 233 230 228 222 220 216 214 214 218
108 178 187 213 215 68 110 97 128 122 141 130 114 88 79 94 137 136 129 128 125 124 122 120 118 114 107 93 76 76 72 61 69 75 74 75 74 68 61 61 50 41 32 29 28 21 18 19 21 19 13 5 6 4 6 9 4 11 14 22 31 26 23 20 15 10 0 345 321 292 270 263 258 250 245 238 242 241 241 235 231 231 227 223 220 225 228
212 210 204 228 91 154 120 125 138 167 155 184 201 176 107 113 144 148 133 129 128 125 122 125 126 122 113 94 79 65 66 65 62 64 68 67 67 68 62 59 55 38 33 33 25 20 24 23 21 13 8 360 358 356 0 353 355 353 1 9 10 8 5 8 3 357 353 342 339 316 309 294 272 264 258 248 240 239 239 241 241 234 230 227 237 243 240
267 228 217 212 209 233 129 85 106 23 3 359 328 103 115 136 142 145 139 135 135 133 134 137 146 166 141 110 97 73 66 62 65 64 62 60 57 55 53 42 42 46 28 25 38 26 15 24 22 9 356 356 348 353 355 351 351 347 356 359 356 355 353 351 346 348 344 341 333 326 306 295 296 291 278 261 251 243 242 241 239 236 234 234 226 222 221
202 241 240 231 236 79 48 102 121 44 4 299 307 247 161 146 148 148 144 139 143 143 147 147 170 202 195 117 109 90 74 68 52 51 49 44 44 44 38 29 17 17 14 10 5 13 14 16 10 360 353 348 348 346 349 346 343 342 349 350 348 347 344 340 335 335 337 338 335 326 314 299 294 287 279 271 261 247 237 238 240 232 222 225 221 216 206
246 239 236 242 39 83 114 90 1 17 336 16 262 225 186 147 148 143 144 141 143 144 145 159 196 323 232 125 100 87 80 73 60 41 37 34 29 30 26 26 9 2 4 3 8 11 10 7 0 354 349 347 344 337 340 337 331 333 339 337 332 329 329 328 325 322 322 326 330 327 318 311 295 284 278 272 259 251 242 239 236 228 220 221 221 217 197
160 208 243 91 124 92 82 39 14 16 306 272 208 220 108 143 137 141 138 129 128 136 149 185 120 74 64 81 94 82 60 59 53 49 40 32 23 20 17 15 2 359 1 4 2 3 2 357 354 349 346 343 336 335 330 322 325 326 323 317 316 316 312 310 310 313 316 317 321 319 312 309 303 283 269 260 251 240 237 234 232 220 211 208 207 206 194
235 230 236 244 69 48 4 21 8 354 304 187 236 62 127 124 123 118 115 108 97 91 79 76 85 88 80 79 76 68 56 48 44 28 26 19 14 16 15 9 10 359 351 354 354 354 354 349 347 344 342 336 328 331 322 319 325 322 317 318 314 307 303 302 305 305 307 311 314 310 308 307 307 291 271 257 243 233 232 226 221 220 206 193 192 187 172
53 207 236 227 239 90 349 12 102 12 18 59 106 123 111 113 108 107 97 90 86 87 87 78 81 83 74 66 59 58 48 34 27 20 15 9 4 4 0 357 13 358 344 347 348 344 343 345 343 338 333 324 320 318 315 316 317 317 315 308 306 305 304 302 299 298 296 298 299 301 303 304 299 293 282 257 237 230 224 220 212 211 204 197 185 171 163
268 216 219 263 25 60 15 295 202 88 75 98 103 113 113 107 110 105 100 79 72 74 80 88 82 76 79 66 48 40 35 25 16 13 6 5 0 358 355 354 359 345 338 342 338 342 340 344 339 336 328 321 321 317 310 316 315 309 303 300 298 293 289 286 286 286 287 284 283 283 287 293 293 287 279 269 250 230 223 217 208 199 197 193 184 169 163
5 28 60 94 101 72 71 78 93 103 103 99 101 95 105 106 88 83 91 88 78 65 74 77 70 80 61 53 47 30 16 6 8 360 360 358 355 349 348 347 353 339 341 338 337 340 344 342 340 337 334 324 324 318 320 323 315 310 307 304 297 290 284 280 277 276 274 275 276 275 272 270 275 278 275 264 252 240 227 222 218 211 203 198 195 199 172
92 71 75 102 115 97 83 80 87 97 91 81 92 96 93 74 67 63 79 82 77 67 44 55 72 55 41 35 27 12 3 356 1 351 349 353 350 347 342 345 350 337 337 337 341 344 341 343 338 331 322 315 309 310 311 307 302 300 301 302 301 297 295 291 286 280 274 270 266 264 263 258 257 264 269 267 257 242 231 227 223 220 216 207 204 194 179
198 89 120 106 107 113 95 89 84 70 61 60 61 71 70 75 73 72 65 64 65 54 50 47 45 55 35 27 17 1 350 349 346 345 347 347 346 343 343 346 342 338 342 341 348 345 339 339 346 334 329 321 318 321 322 317 313 307 302 294 289 288 289 290 285 275 270 268 266 260 251 248 249 249 247 248 249 249 240 231 228 227 220 211 209 199 188
328 125 136 122 99 111 125 121 105 93 82 74 67 71 76 81 81 85 89 96 83 80 75 65 58 72 64 22 11 349 340 336 334 339 345 340 339 340 341 340 345 336 341 342 340 340 341 340 337 333 328 326 323 321 318 315 311 308 303 302 300 296 291 286 281 286 284 273 267 265 263 257 253 245 234 234 240 241 245 240 236 229 226 215 215 208 192
102 120 144 139 142 141 138 139 85 91 112 117 122 122 130 130 119 117 111 86 88 83 93 80 43 20 41 22 359 339 331 334 338 346 337 337 333 335 336 343 343 336 341 338 336 333 332 329 328 323 321 317 315 314 311 310 306 300 295 291 287 287 288 286 284 280 277 277 272 267 262 258 250 243 233 230 232 237 234 246 268 247 232 265 19 8 2
170 169 167 168 169 172 163 163 144 122 106 116 118 132 119 115 105 102 102 97 75 73 50 21 13 3 360 2 353 339 335 339 342 332 334 329 333 331 338 336 327 325 334 328 325 322 324 325 320 318 314 313 313 313 311 307 303 297 292 288 284 281 280 282 282 280 275 271 267 264 261 257 258 245 51 357 324 231 207 97 75 41 360 256 114 189 6
190 118 144 170 13 47 113 138 136 132 137 143 151 135 118 87 68 63 56 106 138 96 44 22 6 2 358 354 352 337 339 336 333 334 329 327 328 327 330 326 328 331 321 321 322 323 323 324 320 317 314 312 311 310 309 305 301 296 293 289 283 278 275 271 276 281 280 278 274 271 267 261 251 250 227 179 77 348 318 124 154 143 119 66 114 106 77
70 104 138 90 38 97 109 115 129 143 148 176 107 84 70 36 73 92 14 354 330 320 300 327 25 3 1 0 357 342 335 330 329 323 325 322 319 321 320 320 319 318 323 325 323 322 320 318 317 317 314 313 314 314 312 307 300 295 289 285 281 278 274 271 270 266 268 271 270 264 264 270 263 250 244 220 165 121 242 261 214 180 162 156 120 102 99
100 102 115 92 93 93 92 108 102 96 102 351 334 342 19 187 154 349 281 306 325 327 326 4 21 42 2 6 359 353 334 331 331 331 318 313 315 315 313 313 314 317 318 317 313 313 313 316 317 318 317 318 320 316 311 306 302 294 288 282 278 274 269 267 266 267 266 268 269 266 261 257 258 252 243 239 222 177 130 80 256 214 204 175 168 186 177
87 112 114 104 93 92 115 132 144 132 131 178 159 127 118 34 12 294 288 293 277 32 340 6 351 15 2 336 334 338 332 333 335 319 311 318 317 312 308 308 312 309 311 310 307 306 311 318 318 316 319 322 321 315 309 303 297 291 286 281 278 274 269 263 260 260 259 261 263 264 258 255 254 248 242 238 238 214 163 164 136 106 147 194 203 191 168
94 108 134 137 130 107 152 315 48 104 108 135 280 7 327 114 159 244 213 265 321 307 315 343 336 329 320 318 320 325 326 325 314 313 318 312 309 304 301 299 302 305 305 304 305 310 311 308 315 322 325 326 321 314 307 300 294 289 285 281 276 271 263 258 259 257 254 256 262 267 266 260 250 248 244 238 235 229 203 172 173 183 186 158 140 197 195
119 112 27 283 217 112 137 141 103 102 126 105 172 232 202 242 267 228 228 210 214 224 251 273 298 310 309 314 321 316 322 320 322 319 316 311 306 305 301 307 306 305 305 308 311 310 312 321 325 328 329 329 322 312 306 303 297 290 285 280 276 270 267 256 249 247 246 247 256 262 264 261 259 255 245 239 233 229 218 207 192 171 158 137 123 79 106
141 126 90 56 58 64 81 109 165 174 150 126 35 300 236 241 222 241 265 249 266 267 272 286 291 295 303 309 314 316 316 319 320 321 315 312 314 309 315 315 312 308 302 304 307 321 325 326 332 331 329 329 324 319 314 308 300 292 288 284 277 271 265 260 255 251 243 239 241 253 265 271 271 259 244 233 233 227 214 208 200 179 140 130 125 115 108
159 143 146 132 137 160 166 185 174 192 216 220 232 229 218 246 262 259 278 282 282 296 301 302 304 306 308 304 311 322 317 320 320 312 312 310 315 317 319 321 313 301 298 319 332 333 328 330 330 325 325 328 326 325 320 315 308 304 300 297 291 277 271 265 255 247 242 239 239 242 257 262 258 259 246 233 224 228 221 209 178 159 150 152 155 151 146
162 160 159 152 176 204 222 211 218 227 235 211 226 238 233 229 258 281 277 281 275 279 299 310 307 297 305 320 330 325 327 323 306 304 305 312 309 304 314 317 307 304 315 309 319 328 330 329 321 320 333 338 337 328 323 319 316 312 310 310 306 286 268 255 236 238 231 231 237 238 239 238 244 248 253 239 222 222 219 195 173 173 160 153 158 147 136
155 161 174 189 202 220 226 232 229 238 225 216 222 232 241 240 237 252 271 279 300 311 312 305 301 308 329 336 328 314 297 301 295 291 298 292 291 286 296 304 291 289 285 287 283 309 320 309 311 320 332 340 338 338 331 325 321 317 320 326 321 324 311 248 226 213 219 225 231 235 243 244 233 232 233 231 223 218 215 209 189 180 171 135 138 137 141
167 174 198 207 216 226 238 229 235 230 220 213 219 240 237 243 255 266 275 293 298 303 308 316 315 351 330 308 268 288 303 298 281 265 263 288 298 293 291 300 290 283 275 271 290 316 314 310 312 317 327 335 339 344 340 330 324 323 334 338 335 338 353 325 233 215 211 221 230 236 246 235 238 229 217 214 224 224 216 207 177 173 162 164 145 130 138
203 267 1 51 259 271 267 244 229 230 215 213 216 223 232 230 241 265 279 283 295 303 318 309 247 154 166 214 250 272 313 318 321 339 335 313 308 314 308 299 293 287 279 282 310 339 330 324 326 329 330 330 338 351 353 341 335 337 343 345 348 349 4 25 179 229 220 219 224 237 253 247 234 227 207 209 220 222 213 202 170 159 159 167 140 137 125
193 139 136 146 245 269 279 279 247 218 206 204 217 217 223 244 260 277 338 307 298 315 320 217 188 153 181 214 245 261 297 309 304 297 301 312 319 309 302 309 308 307 305 290 2 347 338 323 343 336 328 324 343 6 9 353 344 339 347 353 5 3 6 5 5 255 256 239 236 253 277 275 228 232 224 213 214 209 195 188 158 161 145 122 113 119 122
175 162 168 183 214 240 243 244 242 225 213 185 168 221 225 222 240 265 256 266 304 309 332 194 181 170 189 223 244 252 278 308 293 285 291 309 308 305 307 302 310 318 319 333 21 355 336 336 353 335 315 326 354 6 16 355 341 354 352 353 3 13 20 23 18 23 12 4 350 222 253 308 295 206 198 211 211 201 190 170 162 146 134 125 120 121 130
185 180 167 206 187 214 209 207 201 195 180 174 188 204 217 222 240 263 288 284 286 291 284 187 180 201 228 219 245 256 251 256 301 325 325 320 307 299 286 279 290 315 322 353 359 345 330 341 340 319 303 350 3 9 18 348 339 353 14 5 9 11 16 26 30 34 34 46 64 90 134 167 170 166 184 190 189 190 169 165 139 130 122 120 125 131 132
182 189 180 197 183 190 201 192 187 186 183 182 205 223 234 252 256 281 296 302 286 253 227 211 206 212 213 165 224 228 237 233 247 267 284 287 284 284 271 281 343 348 359 357 332 322 335 334 321 312 331 1 0 6 18 347 326 341 27 20 22 20 25 26 31 33 34 41 47 82 113 126 147 150 160 167 165 163 157 134 120 122 121 125 127 131 132
178 185 196 193 193 198 198 184 190 199 202 208 209 215 215 231 271 286 283 285 285 264 237 224 210 213 207 214 238 231 220 228 232 253 270 278 267 272 296 356 7 1 354 332 314 312 338 337 319 312 333 357 351 1 8 349 320 5 29 35 32 32 27 35 37 44 44 48 48 59 82 90 104 108 121 121 114 107 93 90 110 123 123 124 128 131 136
199 199 197 192 201 203 208 206 203 206 209 219 221 219 205 216 237 267 283 280 230 212 272 246 215 213 219 221 226 230 218 213 222 229 253 276 290 278 234 184 28 2 2 327 320 336 333 305 306 334 342 347 356 355 351 332 307 25 35 35 38 41 40 35 38 43 44 42 45 42 61 72 81 87 95 100 101 99 108 111 113 117 123 129 132 128 114
218 213 206 205 209 211 217 222 214 212 212 212 214 222 222 238 263 278 278 285 254 231 267 259 245 246 253 262 259 246 212 222 232 234 237 255 251 265 304 34 20 349 8 346 332 312 304 317 341 334 355 338 2 3 340 321 346 45 40 43 38 38 41 42 45 42 46 46 47 46 53 63 70 74 79 88 92 97 97 100 107 117 122 127 126 106 97
224 222 219 217 220 222 225 222 226 221 215 214 215 221 224 228 246 268 292 286 277 259 271 252 308 315 305 288 269 257 224 226 230 250 257 290 325 327 309 50 357 13 3 327 306 297 331 349 351 0 356 337 334 354 328 299 6 42 51 49 52 46 45 41 45 45 45 46 47 49 48 55 63 69 71 76 84 91 99 103 102 103 110 111 99 92 91
228 223 221 222 223 221 221 222 220 227 226 218 215 216 219 222 233 247 255 243 248 254 260 256 160 199 240 244 251 247 234 219 240 244 237 196 7 5 336 351 337 38 357 330 326 339 356 0 357 10 346 330 324 321 303 324 36 40 52 56 56 58 55 49 47 49 49 48 49 53 57 61 64 68 71 75 79 81 83 87 92 86 75 75 74 82 83
234 228 225 223 222 219 219 221 225 223 228 227 218 216 217 218 227 241 247 239 225 226 268 257 235 229 232 239 253 250 211 209 219 216 229 183 175 171 350 350 354 25 17 336 339 360 12 3 12 346 327 321 321 317 328 31 23 43 49 56 57 61 65 64 56 53 51 53 53 53 49 50 55 58 63 66 68 68 68 72 78 83 71 70 76 82 94
236 228 225 221 219 213 214 216 223 226 227 231 218 212 215 221 227 230 242 235 230 214 218 244 245 240 233 226 238 262 300 309 301 292 261 229 192 130 92 226 338 338 12 322 314 8 29 10 348 328 320 321 321 312 355 37 37 41 43 52 59 62 64 65 69 64 61 59 64 65 66 64 62 61 64 66 67 70 70 72 69 63 61 72 79 93 110
246 234 229 226 220 213 214 213 212 217 220 217 218 211 215 223 225 224 226 236 227 213 212 213 223 229 237 233 220 225 233 245 238 292 329 345 15 61 58 9 20 11 316 296 2 11 41 31 335 324 324 326 320 305 45 33 47 49 50 52 57 64 70 70 68 68 64 63 64 65 67 69 69 68 69 72 74 77 78 80 85 86 92 96 100 101 107
244 232 222 220 218 214 207 203 199 203 209 213 222 224 213 216 223 226 224 224 230 224 212 206 208 206 203 222 230 217 209 199 182 193 205 127 118 111 119 173 129 346 313 352 29 21 14 351 340 327 323 324 312 10 40 49 49 54 53 56 58 65 70 79 75 76 79 81 84 83 77 79 84 87 86 87 85 85 86 85 89 91 92 96 100 102 105
252 234 223 220 224 210 194 189 190 201 208 222 234 236 223 217 220 228 228 220 217 220 219 215 211 195 195 199 213 249 277 275 225 161 174 179 143 145 185 75 46 12 314 217 176 95 43 332 321 317 327 312 313 53 42 49 50 57 59 59 56 58 59 67 74 78 74 69 68 68 73 78 79 79 79 78 79 80 84 89 95 98 100 101 103 104 106
252 245 224 212 216 210 200 197 202 208 217 220 228 237 230 222 222 224 225 221 223 223 223 217 212 197 189 191 207 217 210 234 295 16 123 170 155 153 118 125 184 242 259 322 62 84 58 337 322 324 306 299 27 55 59 62 58 57 55 57 58 52 55 60 66 76 82 78 77 76 76 72 72 74 77 77 80 81 81 80 80 85 91 93 92 90 88
249 224 212 205 203 208 211 208 213 222 223 225 230 230 221 214 222 221 219 220 222 222 229 214 205 196 197 182 191 197 189 190 197 202 160 137 139 137 142 139 84 6 328 333 115 113 131 226 256 319 322 56 61 58 64 64 67 65 74 73 75 76 75 79 78 78 81 82 83 85 83 81 79 78 77 77 77 80 82 84 85 78 67 77 89 87 87
230 226 227 214 214 215 213 221 229 237 244 234 230 211 198 213 232 230 225 220 219 215 227 224 218 203 195 189 184 183 175 181 179 180 201 172 184 122 115 132 146 183 193 238 242 252 154 125 57 9 47 63 68 70 67 74 80 78 70 72 76 83 89 80 69 72 72 81 88 88 86 85 83 85 87 89 87 86 85 85 85 86 87 89 89 92 90
248 249 246 236 233 221 215 215 224 233 242 234 220 200 204 218 229 228 225 203 220 221 220 224 221 206 202 194 188 183 175 178 168 172 199 193 188 181 151 215 188 160 209 210 149 159 106 99 86 355 349 84 96 100 99 90 87 82 81 82 80 75 72 80 89 87 91 95 90 93 98 95 95 96 95 95 94 92 91 93 96 98 97 93 93 95 100